Regional Weather Roundup
Issued by NWS

Home | Current Version | Previous Version | Text Only | Print | Product List | Glossary On
Versions: 1 2 3 4 5 6 7 8 9 10 11 12 13 14 15 16 17 18 19 20 21 22 23 24 25 26 27 28 29 30 31 32 33 34 35 36 37 38 39 40 41 42 43 44 45 46 47 48 49 50
000
ASUS44 KLUB 210310
RWRTX
WEST TEXAS WEATHER ROUNDUP
NATIONAL WEATHER SERVICE LUBBOCK TX
900 PM CST SAT DEC 20 2014

NOTE: "FAIR" INDICATES FEW OR NO CLOUDS BELOW 12,000 FEET WITH NO
SIGNIFICANT WEATHER AND/OR OBSTRUCTIONS TO VISIBILITY.

TXZ004-006>008-010-012-014-016-OKZ002-210400-
TEXAS PANHANDLE/OKLAHOMA PANHANDLE

CITY           SKY/WX    TMP DP  RH WIND       PRES   REMARKS
AMARILLO       PTCLDY    37  34  89 S10       30.02F WCI  30
BORGER         PTCLDY    42  35  76 S10       30.01S
CANADIAN       MOCLDY    41  38  90 SE3       30.05S
DALHART        PTCLDY    28  22  78 S7        29.98F WCI  21
DUMAS          PTCLDY    28  22  77 S8        29.99F WCI  20
GUYMON         PTCLDY    36  27  69 S6        29.98F WCI  31
HEREFORD       PTCLDY    37  35  92 S9        30.01F WCI  30
PAMPA          PTCLDY    36  33  89 SE9       30.03S WCI  29
PERRYTON       PTCLDY    36  33  87 SE9       30.02S WCI  29
$$

TXZ026-029-035-045-048-210400-
SOUTHERN PANHANDLE/SOUTH PLAINS/ROLLING PLAINS

CITY           SKY/WX    TMP DP  RH WIND       PRES   REMARKS
CHILDRESS      MOCLDY    44  39  82 SE3       30.08S
SEMINOLE       CLEAR     41  28  59 CALM      30.05S
LUBBOCK        PTCLDY    39  38  96 SE12      30.04S WCI  32
PLAINVIEW      MOCLDY    37  36  93 S8        30.02S WCI  31
SNYDER         CLOUDY    46  42  84 SE8       30.09S
$$

TXZ052-054-060>062-072-078-127-140-154-169-210400-
PERMIAN BASIN/CONCHO VALLEY/BIG COUNTRY/EDWARDS PLATEAU

CITY           SKY/WX    TMP DP  RH WIND       PRES   REMARKS
ABILENE        CLOUDY    48  40  73 SE13      30.11R
BIG SPRING     CLEAR     44  41  87 SE9       30.09S
BRADY          CLEAR     41  39  93 E6        30.12S
BROWNWOOD      PTCLDY    43  39  87 SE6       30.15S
JUNCTION       MOCLDY    46  41  82 E9        30.12S
MIDLAND        PTCLDY    46  42  86 S12       30.05S
ODESSA         PTCLDY    47  41  80 S12       30.06R
SAN ANGELO     MOCLDY    47  42  83 S5        30.10S
SONORA         CLOUDY    50  46  87 S10       30.15R
SWEETWATER     MOCLDY    48  42  79 SE9       30.12S
WINK           CLEAR     44  30  57 SE7       30.04R
$$

TXZ055-058-074-075-080-082-210400-
FAR WEST/SOUTHWEST MOUNTAINS/TRANS PECOS

CITY           SKY/WX    TMP DP  RH WIND       PRES   REMARKS
ALPINE         PTCLDY    44  28  54 SW8       30.14R
DRYDEN           N/A     51  47  86 E6        30.09R
EL PASO        CLEAR     48  29  47 W5        30.11R
FORT STOCKTON  MOCLDY    47  43  86 SE12      30.06R
MARFA          MOCLDY    34  21  60 NE3G28    30.11S
PECOS          PTCLDY    46  28  50 CALM      30.05R
PRESIDIO       FAIR      50  32  49 N7        30.05S
$$

TXZ014-016-019-021>030-083-210400
TEXAS TECH WEST TEXAS MESONET/TEXAS PANHANDLE/NORTHERN SOUTH PLAINS

CITY           SKY/WX    TMP DP  RH WIND       PRES   REMARKS
ABERNATHY 5ENE   N/A     38  37  97 S10       30.05S WCI  31
AMARILLO 9NNE    N/A     37  34  89 S10       30.00F WCI  30
AMARILLO 7SSE    N/A     37  34  90 S9        30.02F WCI  30
AMHERST 1NE      N/A     34  31  89 S7        30.03S WCI  28
BOOTLEG 11WNW    N/A     29  18  64 SW9       30.01S WCI  20
CANADIAN 6E      N/A     38  36  92 E7        30.04S WCI  33
CAPROCK CYN SP   N/A     38  36  92 S10       30.06R WCI  31
CHILDRESS 2NNE   N/A     44  38  82 SE3       30.07S
CLARENDON 2WSW   N/A     38  35  87 S8        30.04S WCI  33
CLAUDE 12SW      N/A     40  36  86 S9        30.02S WCI  33
DIMMITT 2NE      N/A     34  32  94 S9        30.01F WCI  26
FLOYDADA 2NNE    N/A     38  38  98 S9        30.04S WCI  32
FRIONA 2NE       N/A     32  29  88 S8        30.01S WCI  25
GOODLETT 3W      N/A     41  39  91 E8        30.07S
HART 3N          N/A     34  33  94 SE7       30.02S WCI  28
HEREFORD 2NW     N/A     35  31  86 S6        30.00S WCI  29
MCLEAN 1E        N/A     38  37  95 SE10      30.03S WCI  31
MEMPHIS 1NE      N/A     45  39  79 SE5       30.07S
MULESHOE 2SSW    N/A     35  31  86 S8        30.01S WCI  29
OLTON 6S         N/A     34  32  90 S10       30.03R WCI  26
PALO DURO SP     N/A     40  35  83 S7        30.03S WCI  35
PAMPA 2E         N/A     35  34  94 SE8       30.03S WCI  29
PLAINVIEW 1S     N/A     37  36  96 S8        30.03S WCI  31
SILVERTON 7ESE   N/A     37  36  93 S9        30.05R WCI  31
TULIA 2ENE       N/A     36  35  96 S8        30.02S WCI  30
TURKEY 2WSW      N/A     40  37  91 SE7       30.05S WCI  35
UMBARGER 3NNE    N/A     36  33  90 S12       30.00F WCI  27
$$

TXZ033>036-039>041-045>048-210400
TEXAS TECH WEST TEXAS MESONET/SOUTH PLAINS

CITY           SKY/WX    TMP DP  RH WIND       PRES   REMARKS
AIKEN 3WSW       N/A     36  35  98 S9        30.05S WCI  29
ANTON 6SSW       N/A     35  32  88 SE7       30.04S WCI  30
BROWNFIELD 2S    N/A     35  34  94 SE7       30.05S WCI  29
DENVR CTY 7WNW   N/A     36  25  65 S7        30.04S WCI  31
GAIL 2ESE        N/A     46  41  84 SE7       30.07S
LAMESA 2SE       N/A     41  39  93 SE8       30.07R
LEVELLAND 4S     N/A     40  35  84 SE9       30.04R WCI  33
LUBBOCK 3WNW     N/A     41  38  90 SE9       30.05S
MORTON 1ENE      N/A     38  32  78 S7        30.03R WCI  32
ODONNELL 1N      N/A     40  37  91 SE7       30.06S WCI  35
PLAINS 3N        N/A     37  29  71 S6        30.04R WCI  32
RALLS 1SE        N/A     38  38  97 SE7       30.06S WCI  33
REESE CENTER     N/A     38  35  89 SE9       30.04S WCI  32
SEAGRAVES 1SW    N/A     38  33  81 SE3       30.04S
SEMINOLE 2NNE    N/A     39  28  62 S5        30.04S
SLATON 2NE       N/A     40  39  95 SE9       30.05F WCI  34
SNYDER 3E        N/A     43  41  91 SE9       30.07F
SUNDOWN 8SW      N/A     34  30  87 SE7       30.04S WCI  28
TAHOKA 3NNE      N/A     38  36  94 SE7       30.05F WCI  32
WOLFFORTH 6SSW   N/A     39  39  99 SE9       30.05S WCI  33
$$

TXZ031-032-036>038-042>044-210400-
TEXAS TECH WEST TEXAS MESONET/ROLLING PLAINS

CITY           SKY/WX    TMP DP  RH WIND       PRES   REMARKS
ASPERMONT 3NE    N/A     43  38  83 E6        30.09S
FLUVANNA 3WNW    N/A     43  40  90 SE7       30.07S
GRAHAM 5SSW      N/A     42  40  92 SE8       30.06S
GUTHRIE 10WSW    N/A     41  37  87 SE8       30.07F
HASKELL 1NW      N/A     41  37  87 E2        30.10S
JAYTON 1SSE      N/A     42  38  87 E7        30.08S
KNOX CITY 3NW    N/A     40  36  84 SE5       30.11S
LK A HENRY 1NW   N/A     43  41  90 SE6       30.07F
NORTHFIELD 1S    N/A     42  38  89 SE8       30.06S
ODELL 4ENE       N/A     41  40  95 SE9       30.12S
PADUCAH 10SW     N/A     42  38  86 SE8       30.07S
POST 1NE         N/A     40  38  95 S2        30.07R
SEYMOUR 3NW      N/A     43  41  92 SE7       30.13R
SPUR 1W          N/A     39  37  91 SE2       30.07S
WHITE RVR 6NE    N/A     42  40  93 SE5       30.06S
$$

TXZ052-054-060>062-072-078-127-140-154-169-210400-
TEXAS TECH WEST TEXAS MESONET/PERMIAN BASIN/
CONCHO VALLEY/BIG COUNTRY/EDWARDS PLATEAU

CITY           SKY/WX    TMP DP  RH WIND       PRES   REMARKS
COYANOSA 2N      N/A     48  42  79 SE9       30.05S
JUNCTION 1SSW    N/A     48  42  77 SE9       30.13S
MERTZON 3NNE     N/A     44  42  90 CALM      30.11R
SAN ANGELO 7NW   N/A     49  42  75 SE5       30.11S
STRLNG CT 4WSW   N/A     46  43  88 E5        30.10S
ST LAWRNCE 5SW   N/A     44  43  93 SE12      30.08R
SWEETWATR 11SW   N/A     47  41  81 SE10      30.10S
WALL 1E          N/A     47  41  80 SE8       30.11S
$$

TXZ055-058-074-075-080-082-210400-
TEXAS TECH WEST TEXAS MESONET/FAR WEST/SOUTHWEST MOUNTAINS/TRANS PECOS

CITY           SKY/WX    TMP DP  RH WIND       PRES   REMARKS
PRSMN GAP BBNP   N/A     47  44  87 N17       30.07S
$$



USA.gov is the U.S. government's official web portal to all federal, state and local government web resources and services.